Location: Ernsee
(50.8780°N, 12.0389°E)
Time: 22:21:37
(UTC+00:00)

STARLINK-57 - Pass Details

Date: 20 January 2020
Orbit: 528 x 531 km, 53.0° (Epoch: 17 February)

Event Time Altitude Azimuth Distance (km) Brightness Sun altitude
Rises 05:59:48 0° 234° (SW) 2,661 6.8 -9.9°
Reaches altitude 10° 06:02:02 10° 231° (SW) 1,774 5.9 -9.6°
Maximum altitude 06:05:59 58° 153° (SSE) 624 4.2 -9.0°
Drops below altitude 10° 06:09:58 10° 73° (ENE) 1,784 7.1 -8.4°
Sets 06:12:12 0° 70° (ENE) 2,677 7.9 -8.1°
